Погода в железнодорожной станции Гряды

Россия / Новгородская область     58°58′24″N   31°57′41″E
В апреле 2022 года жителям России запретили посещать сайт meteo.paraplan.net по решению Генеральной прокуратуры. Аудитория сайта уменьшилась в 10 раз. Владельцы сайта не видят смысла в поддержке погодного сервера в таких условиях. Сайт будет закрыт в октябре.
темп.,
°C
ветер,
м/с
пор.,
м/с
влажн.,
%
обл.,
%
осадки,
мм/ч
давл.,
гПа
погр.,
м
30 сентября, пт
пт3000:00+6юв279879 0.2 1007196
03:00+8ю3793100 0.3 1007497
06:00+7ююз389710 0.3 1008249
09:00+7ююз39925 0.3 1009352
12:00+11ююз467517 0.0 1010738
15:00+12ююз586692 0.0 10111200
18:00+9зюз279064 0.4 1012284
21:00+6юз27976 0.5 1014171
1 октября, сб
сб100:00+5ююз27965 0.0 1014151
03:00+5ююз26967 0.0 1015138
06:00+4ююз259722 0.0 101691
09:00+6ююз2490100 0.0 1016145
12:00+10ююз227598 0.0 1015494
15:00+12юв1166100 0.0 1013786
18:00+9всв2281100 0.0 101218
21:00+7св239098 0.0 101163
2 октября, вс
вс200:00+6ссв2695100 0.0 1010154
03:00+5с279793 0.0 1009172
06:00+4с289776 0.0 1009181
09:00+6с36865 0.0 1009231
12:00+10с35650 0.0 1009827
15:00+12с345434 0.0 10091149
18:00+8ссв2373100 0.0 101047
21:00+5ссв2585100 0.0 101095
3 октября, пн
пн300:00+4ссв2692100 0.0 1010115
03:00+4св2792100 0.0 1010152
06:00+4ссв3890100 0.0 1009264
09:00+5ссв31083100 0.0 1007399
12:00+5с51189100 1.4 1006544
15:00+5с61294100 4.8 1003727
18:00+5с51195100 4.3 1000886
21:00+5ссз61296100 12.4 996845
4 октября, вт
вт400:00+5сз41096100 6.8 993794
03:00+6зюз3798100 10.3 992433
06:00+5зюз5996100 2.6 992660
09:00+3ююз5997100 4.7 994629
12:00+5ююз5997100 2.8 996911
15:00+6юз61094100 6.2 9991051
18:00+6юз5994100 2.6 10021008
21:00+6юз5994100 4.9 1004841